Regional Weather Roundup
Issued by NWS Kansas City/Pleasant Hill, MO

Home | Current Version | Previous Version | Graphics & Text | Print | Product List | Glossary Off
Versions: 1 2 3 4 5 6 7 8 9 10 11 12 13 14 15 16 17 18 19 20 21 22 23 24 25 26 27 28 29 30 31 32 33 34 35 36 37 38 39 40 41 42 43 44 45 46 47 48 49 50

000
ASUS43 KEAX 240004
RWREAX

WEATHER ROUNDUP FOR EASTERN KANSAS AND NORTHWEST MISSOURI
NATIONAL WEATHER SERVICE KANSAS CITY/PLEASANT HILL MO
600 PM CST SUN NOV 23 2014

KSZ040-057-103>105-MOZ028-029-037-043-240100-
...KANSAS CITY METROPOLITAN AREA...

CITY           SKY/WX    TMP DP  RH WIND       PRES   REMARKS
K.C. INTL      RAIN      43  43 100 NW16G24   29.41R FOG
6HR MIN TEMP:  43; 6HR MAX TEMP:  58; 6HR PCP:  0.27;

K.C. DOWNTOWN  CLOUDY    46  42  86 NW20G26   29.38R
6HR MIN TEMP:  46; 6HR MAX TEMP:  59; 6HR PCP:  0.04;

LEES SUMMIT    NOT AVBL
OLATHE - IXD   CLOUDY    44  42  93 NW23G37   29.41R
6HR MIN TEMP:  44; 6HR MAX TEMP:  57; 6HR PCP:  0.19;

OLATHE - OJC   LGT RAIN  45  43  93 N18G29    29.38R
6HR MIN TEMP:  45; 6HR MAX TEMP:  57; 6HR PCP:  0.06;

LAWRENCE       LGT RAIN  44  40  85 NW23G31   29.44R

$$

MOZ001>008-011>017-020>025-030>033-038>040-044>046-053-054-240100-
...NORTHERN AND CENTRAL MISSOURI...

CITY           SKY/WX    TMP DP  RH WIND       PRES   REMARKS
ST. JOSEPH     LGT RAIN  44  40  85 N23G37    29.43R
6HR MIN TEMP:  44; 6HR MAX TEMP:  57; 6HR PCP:  0.04;

MOSBY          RAIN      46  43  87 NW12G23   29.38R
WARRENSBURG    CLOUDY    54  52  94 CALM      29.30S FOG
WHITEMAN AFB   CLOUDY    54  53  97 N6        29.29S
6HR MIN TEMP:  54; 6HR MAX TEMP:  56; 6HR PCP:  0.03;

CLINTON        CLOUDY    55  55 100 CALM      29.31R FOG
SEDALIA        FOG       55  53  93 CALM      29.30S VSB 1
6HR MIN TEMP:  54; 6HR MAX TEMP:  57; 6HR PCP:  0.08;

WARSAW         NOT AVBL
MARSHALL       CLOUDY    55  55 100 CALM      29.30F FOG
CHILLICOTHE      N/A     48  46  93 NW9       29.34R
6HR MIN TEMP:  48; 6HR MAX TEMP:  57; 6HR PCP:  0.04;

MOBERLY        RAIN      54  50  87 CALM      29.31F VSB 1
KIRKSVILLE     FOG       53  53 100 W5        29.30F VSB 1/2
6HR MIN TEMP:  53; 6HR MAX TEMP:  55; 6HR PCP:  0.13;


$$

MOZ041-047>049-056>058-063>065-088>090-097-240100-
...EASTERN AND SOUTHERN MISSOURI...

CITY           SKY/WX    TMP DP  RH WIND       PRES   REMARKS
ST. LOUIS INTL LGT RAIN  55  54  94 SE5       29.30F FOG
6HR MIN TEMP:  55; 6HR MAX TEMP:  56; 6HR PCP:  0.60;

SPIRIT OF STL  CLOUDY    53  53 100 CALM      29.29F FOG
COLUMBIA       FOG       54  53  97 CALM      29.28F VSB 1
JEFFERSON CITY FOG       54  53  97 CALM      29.28F VSB 1
MEXICO         CLOUDY   N/A N/A N/A SW5       29.30F FOG
ROLLA          CLOUDY    53  52  96 S3        29.27F FOG
LEBANON        PTCLDY    54  52  94 CALM      29.30F
OSAGE BEACH    CLOUDY    54  52  94 CALM      29.29S VSB<1/4
SPRINGFIELD    LGT RAIN  55  53  93 SE8       29.28F
BRANSON        PTCLDY    54  52  94 E6        29.31F
NEVADA         RAIN      55  54  94 N3        29.32R
JOPLIN         RAIN      56  55  97 NW7       29.31R FOG
WEST PLAINS    CLOUDY    56  54  93 CALM      29.34R FOG

$$

IAZ060-094-KSZ022-034>040-054-083-096-NEZ052-066-093-240100-
...KANSAS...SOUTHEAST NEBRASKA AND IOWA...

CITY           SKY/WX    TMP DP  RH WIND       PRES   REMARKS
TOPEKA         LGT RAIN  44  40  85 NW21G32   29.49R
6HR MIN TEMP:  44; 6HR MAX TEMP:  58; 6HR PCP:  0.25;

MANHATTAN      CLOUDY    42  38  85 VRB6      29.56R
EMPORIA        LGT RAIN  42  39  89 NW17G30   29.50R WCI  34
CHANUTE        CLOUDY    47  43  86 N21G35    29.40R
WICHITA        LGT RAIN  42  38  85 N17G28    29.57R WCI  34
OMAHA          CLOUDY    44  33  65 NW17G28   29.53R
LINCOLN        CLOUDY    44  30  57 N23       29.57R
FALLS CITY     CLOUDY    42  37  82 NW15G23   29.49R WCI  34
LAMONI         CLOUDY    44  41  89 N24G32    29.36S WCI  35
DES MOINES     DRIZZLE   46  41  82 NW22G28   29.38R

$$




USA.gov is the U.S. government's official web portal to all federal, state and local government web resources and services.